Location: Unspecified
(45.3999°N, 88.1269°W)
Time: 16:19:05
(UTC-05:00)

Cosmos 1674 - Visible Passes

Search period start: 18 June 2018 00:00
Search period end: 28 June 2018 00:00
Orbit: 498 x 520 km, 82.5° (Epoch: 18 June)

Date Brightness Start Highest point End Pass type
(mag) Time Alt. Az. Time Alt. Az. Time Alt. Az.
18 Jun 4.1 21:43:28 12° SE 21:46:07 23° E 21:49:09 10° NE visible
18 Jun 4.6 23:18:20 10° SW 23:21:34 26° WNW 23:24:51 10° NNW visible
19 Jun 4.4 21:26:25 10° SE 21:29:02 18° E 21:31:41 10° NE visible
19 Jun 4.2 23:00:54 10° SW 23:04:21 33° WNW 23:07:52 10° N visible
20 Jun 3.8 22:43:31 10° SSW 22:47:09 42° WNW 22:50:50 10° N visible
21 Jun 3.3 22:26:14 10° SSW 22:29:57 55° W 22:33:45 10° N visible
22 Jun 2.9 22:08:59 10° SSW 22:12:47 72° W 22:16:38 10° N visible
23 Jun 2.7 21:51:49 10° S 21:55:37 87° E 21:59:29 10° N visible
24 Jun 2.7 21:34:41 10° S 21:38:28 67° E 21:42:18 10° NNE visible
24 Jun 5.9 23:13:54 10° WNW 23:14:32 10° WNW 23:15:09 10° NW visible
25 Jun 2.9 21:17:38 10° S 21:21:20 51° E 21:25:05 10° NNE visible
25 Jun 5.7 22:55:24 10° W 22:57:14 13° WNW 22:59:06 10° NW visible
26 Jun 5.5 22:37:31 10° WSW 22:39:59 16° WNW 22:42:27 10° NNW visible
27 Jun 5.4 22:19:50 10° WSW 22:22:44 20° WNW 22:25:38 10° NNW visible
